Location: Unspecified
(0.0000°N, 0.0000°E)
Time: 05:00:01
(UTC+00:00)

Gonets-D1 - Visible Passes

Search period start: 03 June 2023 00:00
Search period end: 13 June 2023 00:00
Orbit: 1397 x 1415 km, 82.6° (Epoch: 02 June)

Date Brightness Start Highest point End Pass type
(mag) Time Alt. Az. Time Alt. Az. Time Alt. Az.
03 Jun 9.3 01:43:10 17° NE 01:43:10 17° NE 01:45:07 10° NNE visible
03 Jun 8.8 03:37:10 18° NW 03:37:10 18° NW 03:39:25 10° NNW visible
04 Jun 8.8 02:25:17 25° N 02:25:17 25° N 02:28:10 10° N visible
05 Jun 8.9 03:07:24 19° NNW 03:07:24 19° NNW 03:09:27 10° NNW visible
06 Jun 9.2 01:55:28 18° NNE 01:55:28 18° NNE 01:57:16 10° NNE visible
07 Jun 9.1 02:37:31 17° NNW 02:37:31 17° NNW 02:39:11 10° N visible
08 Jun 9.5 01:25:33 12° NNE 01:25:33 12° NNE 01:26:07 10° NNE visible
09 Jun 9.3 02:07:33 15° N 02:07:33 15° N 02:08:40 10° N visible
11 Jun 9.5 01:37:29 12° N 01:37:29 12° N 01:37:56 10° N visible
